Weather History for KAIG - July, 2013

Change the Weather History Date:

Monday, July 22, 2013

  Actual Average Record
Temperature  
Mean Temperature 66 °F -  
Max Temperature 80 °F 79 °F 91 °F (1983)
Min Temperature 52 °F 54 °F 38 °F (1985)
Cooling Degree Days 1    
Growing Degree Days 16 (Base 50)    
Moisture  
Dew Point 61 °F    
Average Humidity 86    
Maximum Humidity 100    
Minimum Humidity 59    
Precipitation  
Precipitation 0.23 in - - ()
Sea Level Pressure  
Sea Level Pressure 29.79 in    
Wind  
Wind Speed 7 mph (South)    
Max Wind Speed 18 mph    
Max Gust Speed 28 mph    
Visibility 9 miles    
Events Fog , Rain    
Averages and records for this station are not official NWS values.
T = Trace of Precipitation, MM = Missing Value Source: NWS Daily Summary

Daily Weather History Graph

Daily Weather History Graph

Search for Another Location

Airport or City:

Trip Planner

Search our weather history database for the weather conditions in past years. The results will help you decide how hot, cold, wet, or windy it might be!

Date:

Astronomy

Jul. 22, 2013 Rise Set
Actual Time 5:30 AM CDT 8:34 PM CDT
Civil Twilight 4:55 AM CDT 9:09 PM CDT
Nautical Twilight 4:10 AM CDT 9:54 PM CDT
Astronomical Twilight 3:15 AM CDT 10:48 PM CDT
Moon 8:15 PM CDT (7/22) 5:29 AM CDT (7/22)
Length of Visible Light 16h 14m
Length of Day
15h 03m
Full, 100% of the Moon is Illuminated
Jul 22
Full
Jul 22
Full
Jul 29
Last Quarter
Aug 6
New
Aug 14
First Quarter

Hourly Weather History & Observations

Time (CDT) Temp. Heat Index Dew Point Humidity Pressure Visibility Wind Dir Wind Speed Gust Speed Precip Events Conditions
12:15 AM 55.4 °F - 53.6 °F 94% 29.93 in 10.0 mi ESE 3.5 mph - N/A   Clear
12:35 AM 54.5 °F - 53.6 °F 97% 29.93 in 10.0 mi ESE 3.5 mph - N/A   Clear
12:55 AM 54.9 °F - 53.4 °F 95% 29.92 in 10.0 mi ESE 3.5 mph - N/A   Clear
1:15 AM 54.0 °F - 52.9 °F 96% 29.92 in 10.0 mi ESE 3.5 mph - N/A   Clear
1:35 AM 54.5 °F - 53.1 °F 95% 29.91 in 10.0 mi Calm Calm - N/A   Clear
1:55 AM 54.0 °F - 52.7 °F 95% 29.90 in 10.0 mi SSE 3.5 mph - N/A   Clear
2:15 AM 54.0 °F - 53.1 °F 97% 29.90 in 10.0 mi SE 4.6 mph - N/A   Clear
2:35 AM 54.5 °F - 53.6 °F 97% 29.91 in 10.0 mi SE 3.5 mph - N/A   Clear
2:55 AM 54.0 °F - 53.1 °F 97% 29.90 in 10.0 mi SE 3.5 mph - N/A   Clear
3:15 AM 53.6 °F - 52.9 °F 97% 29.90 in 10.0 mi SSE 3.5 mph - N/A   Clear
3:35 AM 53.2 °F - 52.7 °F 98% 29.89 in 10.0 mi SE 5.8 mph - N/A   Scattered Clouds
3:55 AM 54.0 °F - 53.2 °F 97% 29.88 in 10.0 mi SSE 5.8 mph - N/A   Clear
4:15 AM 53.6 °F - 52.9 °F 97% 29.87 in 10.0 mi SSE 4.6 mph - N/A   Clear
4:35 AM 53.1 °F - 52.5 °F 98% 29.87 in 10.0 mi South 4.6 mph - N/A   Scattered Clouds
4:55 AM 52.9 °F - 52.2 °F 97% 29.86 in 10.0 mi SE 8.1 mph - N/A   Scattered Clouds
5:15 AM 53.6 °F - 52.9 °F 97% 29.87 in 10.0 mi South 3.5 mph - N/A   Scattered Clouds
5:35 AM 53.6 °F - 53.1 °F 98% 29.87 in 10.0 mi South 5.8 mph - N/A   Mostly Cloudy
5:55 AM 54.9 °F - 54.5 °F 99% 29.86 in 7.0 mi South 5.8 mph - N/A   Overcast
6:15 AM 55.6 °F - 55.0 °F 98% 29.86 in 7.0 mi South 5.8 mph - N/A   Overcast
6:35 AM 56.5 °F - 56.1 °F 99% 29.87 in 1.5 mi South 6.9 mph - N/A   Overcast
6:55 AM 56.8 °F - 56.5 °F 99% 29.87 in 0.2 mi South 4.6 mph - N/A Fog Fog
7:15 AM 57.4 °F - 57.2 °F 99% 29.87 in 0.8 mi South 4.6 mph - N/A   Overcast
7:35 AM 58.1 °F - 58.1 °F 100% 29.86 in 0.2 mi South 8.1 mph - N/A Fog Fog
7:55 AM 58.5 °F - 58.5 °F 100% 29.86 in 0.2 mi SSW 5.8 mph - N/A Fog Fog
8:35 AM 60.3 °F - 60.3 °F 100% 29.85 in 0.2 mi South 5.8 mph - N/A Fog Fog
9:35 AM 62.6 °F - 61.0 °F 94% 29.83 in 5.0 mi SSW 5.8 mph - N/A   Overcast
9:55 AM 63.5 °F - 61.5 °F 93% 29.83 in 7.0 mi SSW 8.1 mph - N/A   Overcast
10:35 AM 68.0 °F - 63.7 °F 86% 29.82 in 10.0 mi SW 9.2 mph - N/A   Overcast
10:55 AM 70.0 °F - 64.6 °F 83% 29.81 in 10.0 mi SSW 10.4 mph - N/A   Mostly Cloudy
11:15 AM 71.6 °F - 65.3 °F 80% 29.80 in 10.0 mi SW 6.9 mph - N/A   Scattered Clouds
11:35 AM 73.4 °F - 66.0 °F 78% 29.80 in 10.0 mi SSW 10.4 mph - N/A   Scattered Clouds
11:55 AM 74.5 °F - 66.6 °F 76% 29.79 in 10.0 mi SSW 13.8 mph - N/A   Scattered Clouds
12:15 PM 75.0 °F - 66.4 °F 74% 29.79 in 10.0 mi SSW 10.4 mph 18.4 mph N/A   Scattered Clouds
12:35 PM 75.9 °F - 66.4 °F 72% 29.78 in 10.0 mi South 12.7 mph - N/A   Scattered Clouds
12:55 PM 75.2 °F - 66.2 °F 73% 29.77 in 10.0 mi SSW 15.0 mph 21.9 mph N/A   Mostly Cloudy
1:15 PM 76.6 °F - 66.2 °F 70% 29.76 in 10.0 mi SSW 15.0 mph 19.6 mph N/A   Scattered Clouds
1:35 PM 77.2 °F - 65.1 °F 66% 29.75 in 10.0 mi SSW 12.7 mph 20.7 mph N/A   Scattered Clouds
1:55 PM 77.9 °F - 64.9 °F 64% 29.75 in 10.0 mi SSW 16.1 mph 23.0 mph N/A   Scattered Clouds
2:15 PM 78.4 °F - 64.2 °F 62% 29.74 in 10.0 mi SSW 15.0 mph - N/A   Scattered Clouds
2:35 PM 79.2 °F - 65.8 °F 64% 29.72 in 10.0 mi SSW 18.4 mph 27.6 mph N/A   Clear
2:55 PM 78.6 °F - 64.6 °F 62% 29.73 in 10.0 mi SSW 12.7 mph 17.3 mph N/A   Mostly Cloudy
3:15 PM 79.3 °F - 64.6 °F 60% 29.72 in 10.0 mi SW 15.0 mph 20.7 mph N/A   Scattered Clouds
3:35 PM 79.2 °F - 64.8 °F 61% 29.72 in 10.0 mi SW 11.5 mph 20.7 mph N/A   Scattered Clouds
3:55 PM 80.1 °F 81.8 °F 64.6 °F 59% 29.72 in 10.0 mi SW 12.7 mph 20.7 mph N/A   Scattered Clouds
4:15 PM 79.2 °F - 64.8 °F 61% 29.71 in 10.0 mi SW 12.7 mph 18.4 mph N/A   Scattered Clouds
4:35 PM 80.4 °F 82.7 °F 66.6 °F 63% 29.71 in 10.0 mi SW 13.8 mph 18.4 mph N/A   Mostly Cloudy
4:55 PM 79.3 °F - 66.4 °F 64% 29.70 in 10.0 mi SSW 16.1 mph 20.7 mph N/A   Scattered Clouds
5:15 PM 77.2 °F - 66.7 °F 70% 29.69 in 10.0 mi SSW 11.5 mph - N/A   Scattered Clouds
5:35 PM 76.6 °F - 67.6 °F 74% 29.69 in 10.0 mi SSW 10.4 mph - N/A   Mostly Cloudy
5:55 PM 76.5 °F - 67.5 °F 74% 29.65 in 7.0 mi South 15.0 mph - N/A   Mostly Cloudy
6:15 PM 77.0 °F - 67.5 °F 72% 29.69 in 10.0 mi SSW 8.1 mph 17.3 mph N/A   Mostly Cloudy
6:35 PM 74.8 °F - 68.7 °F 81% 29.69 in 7.0 mi North 8.1 mph - 0.01 in Rain Rain
6:55 PM 73.9 °F - 68.0 °F 82% 29.67 in 10.0 mi South 8.1 mph - 0.01 in   Overcast
7:15 PM 69.3 °F - 67.6 °F 95% 29.68 in 2.0 mi WSW 8.1 mph - 0.16 in Rain Heavy Rain
7:35 PM 71.1 °F - 69.4 °F 95% 29.69 in 10.0 mi WSW 10.4 mph - 0.17 in Rain Light Rain
7:55 PM 71.1 °F - 69.8 °F 96% 29.69 in 10.0 mi South 3.5 mph - 0.18 in   Overcast
8:15 PM 69.4 °F - 68.0 °F 95% 29.70 in 10.0 mi SE 12.7 mph - N/A   Overcast
8:35 PM 68.0 °F - 66.2 °F 94% 29.70 in 10.0 mi South 5.8 mph - N/A   Overcast
8:55 PM 67.6 °F - 66.6 °F 96% 29.70 in 10.0 mi SSE 6.9 mph - N/A   Overcast
9:15 PM 68.9 °F - 66.6 °F 92% 29.71 in 10.0 mi Calm Calm - 0.04 in   Overcast
9:35 PM 67.8 °F - 66.9 °F 97% 29.72 in 10.0 mi North 9.2 mph - 0.04 in   Overcast
9:55 PM 68.5 °F - 66.0 °F 92% 29.73 in 10.0 mi North 8.1 mph - 0.04 in   Overcast
10:15 PM 67.3 °F - 64.6 °F 91% 29.75 in 10.0 mi North 16.1 mph 20.7 mph N/A   Overcast
10:35 PM 65.3 °F - 60.1 °F 83% 29.75 in 10.0 mi North 12.7 mph - N/A   Overcast
10:55 PM 64.0 °F - 59.5 °F 85% 29.75 in 10.0 mi North 12.7 mph - N/A   Mostly Cloudy
11:15 PM 63.5 °F - 59.4 °F 86% 29.76 in 10.0 mi NNW 9.2 mph - N/A   Mostly Cloudy
11:35 PM 63.1 °F - 58.6 °F 85% 29.77 in 10.0 mi NNW 9.2 mph - N/A   Mostly Cloudy
11:55 PM 61.3 °F - 58.1 °F 89% 29.77 in 10.0 mi NNW 6.9 mph - N/A   Scattered Clouds